Weather in Kos

Greece     36°54′03″N   27°16′56″E
temp.,
°C
wind,
m/s
gust,
m/s
humid.,
%
clouds,
%
prec.,
mm/h
press.,
hPa
HPBL,
m
4 march, thu
thu423:00+12n79640 0.0 1023348
02:00+10n68670 0.0 1022278
05:00+10n78690 0.0 1021303
08:00+10n68630 0.0 1021299
11:00+13nnw67520 0.0 1021451
14:00+14nnw78520 0.0 1019491
17:00+14nw78550 0.0 1019514
20:00+14nw68580 0.0 1020453
5 march, fri
fri523:00+13nnw45590 0.0 1021357
02:00+12nnw33620 0.0 1020302
05:00+12nnw23610 0.0 1020293
08:00+12ne11590 0.0 1021117
11:00+15ssw23530 0.0 1021486
14:00+16sw34540 0.0 1020687
17:00+16sw33570 0.0 1020516
20:00+14ssw33650 0.0 1021282
6 march, sat
sat623:00+13sse226496 0.0 1022236
02:00+14se336586 0.0 1022332
05:00+14ese5569100 0.0 1022504
08:00+15se5673100 0.0 1023608
11:00+16s5668100 0.0 1023845
14:00+16s556789 0.0 1021776
17:00+16s33670 0.0 1020414
20:00+15s11690 0.0 1022177
7 march, sun
sun723:00+14ne11680 0.0 1022130
02:00+13ne22790 0.0 1021110
05:00+13nne22780 0.0 1021129
08:00+14n33770 0.0 1021288
11:00+15nnw55690 0.0 1021509
14:00+15nw78650 0.0 1019613
17:00+15nnw89640 0.0 1018733
20:00+14nnw810670 0.0 1019547
8 march, mon
mon823:00+13nnw79730 0.0 1019447
02:00+12nnw67730 0.0 1018400
05:00+11nnw56720 0.0 1018360
08:00+11nnw56700 0.0 1019381
11:00+13nnw56620 0.0 1018428
14:00+14nw56551 0.0 1017434
17:00+14nnw45561 0.0 1016350
20:00+14nnw445618 0.0 1016278